Weather History for KFMM - November, 2012

Change the Weather History Date:

Tuesday, November 6, 2012

  Actual Average (KAKO) Record (KAKO)
Temperature  
Mean Temperature 52 °F 42 °F  
Max Temperature 65 °F 55 °F 76 °F (1980)
Min Temperature 38 °F 30 °F 9 °F (1959)
Degree Days  
Heating Degree Days 14    
Month to date heating degree days  
Cooling Degree Days 0    
Month to date cooling degree days  
Growing Degree Days 2 (Base 50)    
Moisture  
Dew Point 32 °F    
Average Humidity 51    
Maximum Humidity 76    
Minimum Humidity 28    
Precipitation  
Precipitation 0.00 in 0.02 in 0.62 in (1946)
Month to date precipitation 0.12  
Year to date precipitation 15.88  
Sea Level Pressure  
Sea Level Pressure 30.21 in    
Wind  
Wind Speed 6 mph ()    
Max Wind Speed 17 mph    
Max Gust Speed -    
Visibility 10.0 miles    
Events      
T = Trace of Precipitation, MM = Missing Value Source: Averaged Metar Reports

Daily Weather History Graph

Daily Weather History Graph

Search for Another Location

Airport or City:

Trip Planner

Search our weather history database for the weather conditions in past years. The results will help you decide how hot, cold, wet, or windy it might be!

Date:

Astronomy

Nov. 06, 2012 Rise Set
Actual Time 6:31 AM MST 4:45 PM MST
Civil Twilight 6:02 AM MST 5:14 PM MST
Nautical Twilight 5:30 AM MST 5:46 PM MST
Astronomical Twilight 4:58 AM MST 6:18 PM MST
Moon 11:27 PM MST (11/6) 12:24 PM MST (11/6)
Length of Visible Light 11h 11m
Length of Day
10h 14m
Waning Gibbous, 52% of the Moon is Illuminated
Nov 6
Waning Gibbous
Nov 6
Last Quarter
Nov 13
New
Nov 20
First Quarter
Nov 28
Full

Hourly Weather History & Observations

Time (MST) Temp. Windchill Dew Point Humidity Pressure Visibility Wind Dir Wind Speed Gust Speed Precip Events Conditions
12:15 AM 38.7 °F 35.2 °F 31.8 °F 76% 30.17 in 10.0 mi West 4.6 mph - N/A   Clear
12:35 AM 44.1 °F 38.6 °F 32.2 °F 63% 30.17 in 10.0 mi WNW 10.4 mph - N/A   Clear
12:55 AM 47.5 °F - 32.0 °F 55% 30.17 in 10.0 mi NNW 13.8 mph - N/A   Clear
1:15 AM 50.2 °F - 31.8 °F 49% 30.17 in 10.0 mi NW 17.3 mph - N/A   Clear
1:35 AM 51.3 °F - 31.6 °F 47% 30.17 in 10.0 mi NW 16.1 mph - N/A   Clear
1:55 AM 51.6 °F - 31.5 °F 46% 30.17 in 10.0 mi NNW 13.8 mph - N/A   Clear
2:15 AM 50.9 °F - 31.3 °F 47% 30.17 in 10.0 mi NNW 13.8 mph - N/A   Clear
2:35 AM 49.6 °F - 31.1 °F 49% 30.17 in 10.0 mi NNW 12.7 mph - N/A   Clear
2:55 AM 49.5 °F - 31.1 °F 49% 30.17 in 10.0 mi NW 13.8 mph - N/A   Clear
3:15 AM 49.6 °F - 31.1 °F 49% 30.17 in 10.0 mi NNW 12.7 mph - N/A   Clear
3:35 AM 47.1 °F - 31.1 °F 54% 30.17 in 10.0 mi NNW 13.8 mph - N/A   Clear
3:55 AM 43.7 °F 39.7 °F 30.4 °F 59% 30.18 in 10.0 mi WSW 6.9 mph - N/A   Clear
4:15 AM 39.7 °F 33.7 °F 30.9 °F 71% 30.20 in 10.0 mi West 9.2 mph - N/A   Clear
4:35 AM 39.2 °F 33.0 °F 31.1 °F 73% 30.21 in 10.0 mi West 9.2 mph - N/A   Clear
4:55 AM 39.6 °F 34.0 °F 31.1 °F 72% 30.23 in 10.0 mi East 8.1 mph - N/A   Clear
5:15 AM 42.3 °F - 30.6 °F 63% 30.23 in 10.0 mi Calm Calm - N/A   Clear
5:35 AM 41.9 °F - 30.2 °F 63% 30.24 in 10.0 mi Calm Calm - N/A   Clear
5:55 AM 40.6 °F - 30.6 °F 67% 30.25 in 10.0 mi Calm Calm - N/A   Clear
6:15 AM 41.5 °F - 30.9 °F 66% 30.25 in 10.0 mi Calm Calm - N/A   Clear
6:35 AM 43.3 °F 39.9 °F 30.4 °F 60% 30.25 in 10.0 mi NNE 5.8 mph - N/A   Clear
6:55 AM 38.7 °F 33.6 °F 31.1 °F 74% 30.25 in 10.0 mi NE 6.9 mph - N/A   Clear
7:15 AM 42.1 °F - 32.0 °F 67% 30.27 in 10.0 mi Calm Calm - N/A   Clear
7:35 AM 42.1 °F - 32.0 °F 67% 30.28 in 10.0 mi Calm Calm - N/A   Clear
7:55 AM 46.0 °F - 32.5 °F 59% 30.29 in 10.0 mi Calm Calm - N/A   Clear
8:15 AM 45.5 °F 41.3 °F 33.3 °F 62% 30.29 in 10.0 mi WSW 8.1 mph - N/A   Clear
8:35 AM 48.0 °F - 32.9 °F 56% 30.29 in 10.0 mi WSW 3.5 mph - N/A   Clear
8:55 AM 50.5 °F - 33.1 °F 51% 30.29 in 10.0 mi SW 3.5 mph - N/A   Clear
9:15 AM 51.8 °F - 32.2 °F 47% 30.29 in 10.0 mi Calm Calm - N/A   Clear
9:35 AM 54.1 °F - 32.9 °F 45% 30.29 in 10.0 mi East 3.5 mph - N/A   Clear
9:55 AM 55.6 °F - 33.4 °F 43% 30.29 in 10.0 mi East 3.5 mph - N/A   Clear
10:15 AM 57.0 °F - 33.8 °F 42% 30.29 in 10.0 mi Calm Calm - N/A   Clear
10:35 AM 55.6 °F - 34.0 °F 44% 30.28 in 10.0 mi South 5.8 mph - N/A   Clear
10:55 AM 58.1 °F - 33.3 °F 39% 30.27 in 10.0 mi SE 5.8 mph - N/A   Clear
11:15 AM 58.5 °F - 33.1 °F 38% 30.26 in 10.0 mi Calm Calm - N/A   Clear
11:35 AM 59.9 °F - 32.7 °F 36% 30.25 in 10.0 mi Calm Calm - N/A   Clear
11:55 AM 60.3 °F - 32.0 °F 34% 30.24 in 10.0 mi Calm Calm - N/A   Clear
12:15 PM 61.0 °F - 32.0 °F 34% 30.23 in 10.0 mi South 5.8 mph - N/A   Clear
12:35 PM 61.9 °F - 32.0 °F 33% 30.22 in 10.0 mi Calm Calm - N/A   Clear
12:55 PM 62.8 °F - 32.0 °F 32% 30.21 in 10.0 mi SW 3.5 mph - N/A   Clear
1:15 PM 63.0 °F - 32.0 °F 31% 30.20 in 10.0 mi SSW 5.8 mph - N/A   Clear
1:35 PM 64.0 °F - 32.0 °F 30% 30.19 in 10.0 mi South 4.6 mph - N/A   Clear
1:55 PM 64.0 °F - 32.0 °F 30% 30.19 in 10.0 mi SSW 6.9 mph - N/A   Clear
2:15 PM 64.6 °F - 32.0 °F 30% 30.19 in 10.0 mi SW 9.2 mph - N/A   Clear
2:35 PM 65.1 °F - 31.5 °F 28% 30.18 in 10.0 mi WSW 5.8 mph - N/A   Clear
2:55 PM 65.3 °F - 31.5 °F 28% 30.18 in 10.0 mi WSW 3.5 mph - N/A   Clear
3:15 PM 65.3 °F - 31.8 °F 29% 30.18 in 10.0 mi SW 4.6 mph - N/A   Clear
3:35 PM 64.8 °F - 31.6 °F 29% 30.18 in 10.0 mi SW 5.8 mph - N/A   Clear
3:55 PM 63.7 °F - 32.0 °F 31% 30.19 in 10.0 mi SSW 4.6 mph - N/A   Clear
4:15 PM 61.3 °F - 32.0 °F 33% 30.18 in 10.0 mi SSW 3.5 mph - N/A   Clear
4:35 PM 59.0 °F - 31.1 °F 35% 30.19 in 10.0 mi Calm Calm - N/A   Clear
4:55 PM 56.3 °F - 31.3 °F 39% 30.19 in 10.0 mi Calm Calm - N/A   Clear
5:15 PM 55.4 °F - 31.1 °F 40% 30.19 in 10.0 mi Calm Calm - N/A   Clear
5:35 PM 51.8 °F - 31.6 °F 46% 30.19 in 10.0 mi Calm Calm - N/A   Clear
5:55 PM 53.6 °F - 31.8 °F 44% 30.20 in 10.0 mi Calm Calm - N/A   Clear
6:15 PM 53.4 °F - 32.0 °F 44% 30.20 in 10.0 mi Calm Calm - N/A   Clear
6:35 PM 53.4 °F - 32.0 °F 44% 30.21 in 10.0 mi East 3.5 mph - N/A   Clear
6:55 PM 52.0 °F - 32.0 °F 47% 30.20 in 10.0 mi Calm Calm - N/A   Clear
7:15 PM 50.4 °F - 32.4 °F 50% 30.20 in 10.0 mi Calm Calm - N/A   Clear
7:35 PM 51.8 °F - 32.5 °F 48% 30.20 in 10.0 mi Calm Calm - N/A   Clear
7:55 PM 52.2 °F - 32.4 °F 47% 30.20 in 10.0 mi Calm Calm - N/A   Clear
8:15 PM 52.0 °F - 32.5 °F 48% 30.20 in 10.0 mi Calm Calm - N/A   Clear
8:35 PM 47.5 °F - 31.3 °F 53% 30.20 in 10.0 mi ENE 3.5 mph - N/A   Clear
8:55 PM 42.4 °F 40.7 °F 31.8 °F 66% 30.20 in 10.0 mi ESE 3.5 mph - N/A   Clear
9:15 PM 42.6 °F 39.9 °F 32.0 °F 66% 30.20 in 10.0 mi South 4.6 mph - N/A   Clear
9:35 PM 41.4 °F 39.4 °F 32.0 °F 69% 30.20 in 10.0 mi West 3.5 mph - N/A   Clear
9:55 PM 41.4 °F 39.4 °F 32.0 °F 69% 30.19 in 10.0 mi West 3.5 mph - N/A   Clear
10:15 PM 43.9 °F - 32.7 °F 65% 30.18 in 10.0 mi Calm Calm - N/A   Clear
10:35 PM 46.4 °F - 33.1 °F 60% 30.19 in 10.0 mi Calm Calm - N/A   Clear
10:55 PM 39.4 °F - 31.8 °F 74% 30.18 in 10.0 mi Calm Calm - N/A   Clear
11:15 PM 39.0 °F - 31.6 °F 75% 30.18 in 10.0 mi Calm Calm - N/A   Clear
11:35 PM 41.4 °F - 32.4 °F 70% 30.18 in 10.0 mi Calm Calm - N/A   Clear
11:55 PM 40.8 °F - 32.2 °F 71% 30.17 in 10.0 mi Calm Calm - N/A   Clear